Home   Weather   Limoges   Past weeks

Flag for France Past Weather in Limoges, Limousin, France — Yesterday and Last 2 Weeks

Now
50 °F

Clear.


Feels Like: 47 °F
Forecast: 46 / 55 °F
Wind: 8 mph from Southeast

Location: Limoges Airport

Current Time: Dec 4, 2016 at 11:26:41 pm

Latest Report: Dec 4, 2016 at 11:00 pm


Visibility: 10 mi

Pressure: 30.09 "Hg

Humidity: 76%

Dew Point: 43 °F

Location of LimogesLocation

Past Weather in Limoges — Graph

°F

Limoges Temperature Yesterday

Maximum temperature yesterday: 45 °F (at 2:00 pm)
Minimum temperature yesterday: 30 °F (at 7:30 am)
Average temperature yesterday: 37 °F

High & Low Weather Summary for the Past Weeks

 TemperatureHumidityPressure
High61 °F (Nov 23, 1:30 pm)100% (Nov 22, 5:00 am)30.51 "Hg (Nov 22, 5:00 am)
Low30 °F (Nov 29, 6:00 am)16% (Dec 2, 11:30 am)29.33 "Hg (Nov 21, 8:00 am)
Average47 °F74%29.93 "Hg
* Reported Nov 19 10:00 pm — Dec 4 10:00 pm, Limoges, Weather by CustomWeather, © 2016

Note: Actual official high and low records may vary slightly from our data, if they occured in-between our weather recording intervals... More about our weather records

Advertising

Limoges Weather History for the Previous 24 Hours

Scroll right to see more
 ConditionsComfort  
Time TempWeatherWind HumidityBarometerVisibility
10:00 pm
Sun, Dec 4
50 °FClear.7 mph76%30.07 "Hg10 mi
9:30 pm52 °FPassing clouds.7 mph72%30.07 "HgN/A
9:00 pm52 °FPassing clouds.8 mph72%30.07 "HgN/A
8:30 pm52 °FPassing clouds.7 mph72%30.07 "HgN/A
8:00 pm52 °FOvercast.7 mph72%30.07 "HgN/A
7:30 pm52 °FPassing clouds.5 mph72%30.07 "HgN/A
7:00 pm52 °FOvercast.5 mph72%30.04 "HgN/A
6:30 pm54 °FPassing clouds.8 mph67%30.04 "HgN/A
6:00 pm54 °FPassing clouds.7 mph67%30.04 "HgN/A
5:30 pm54 °FPassing clouds.9 mph67%30.04 "HgN/A
5:00 pm55 °FPartly sunny.10 mph63%30.04 "HgN/A
4:30 pm55 °FLow clouds.12 mph67%30.01 "HgN/A
4:00 pm57 °FOvercast.13 mph59%30.01 "HgN/A
3:30 pm57 °FOvercast.13 mph59%30.01 "HgN/A
3:00 pm57 °FOvercast.14 mph59%30.01 "HgN/A
2:30 pm57 °FPartly sunny.16 mph59%30.01 "HgN/A
2:00 pm57 °FPassing clouds.14 mph59%30.01 "HgN/A
1:30 pm57 °FPassing clouds.16 mph59%30.01 "HgN/A
1:00 pm55 °FSunny.16 mph63%30.01 "Hg10 mi
12:30 pm55 °FPassing clouds.14 mph63%30.01 "HgN/A
12:00 pm54 °FSunny.15 mph67%30.01 "Hg10 mi
11:30 am54 °FPassing clouds.14 mph63%30.01 "HgN/A
11:00 am52 °FPassing clouds.8 mph67%30.01 "HgN/A
10:30 am50 °FSunny.8 mph71%30.01 "Hg10 mi
10:00 am48 °FSunny.8 mph71%30.01 "Hg10 mi
9:30 am46 °FSunny.7 mph76%30.01 "Hg10 mi
9:00 am45 °FSunny.7 mph76%30.01 "Hg10 mi
8:30 am45 °FSunny.7 mph71%30.01 "Hg10 mi
8:00 am45 °FClear.8 mph71%29.98 "Hg10 mi
7:30 am45 °FClear.7 mph66%29.98 "Hg10 mi
7:00 am45 °FClear.7 mph66%29.98 "Hg10 mi
6:30 am45 °FClear.7 mph66%29.98 "Hg10 mi
6:00 am45 °FClear.7 mph57%29.98 "Hg10 mi
5:30 am45 °FClear.7 mph57%29.98 "Hg10 mi
5:00 am43 °FClear.7 mph61%29.98 "Hg10 mi
4:30 am43 °FClear.7 mph57%29.98 "Hg10 mi
4:00 am41 °FClear.7 mph57%29.98 "Hg10 mi
3:30 am43 °FClear.7 mph57%29.98 "Hg10 mi
3:00 am41 °FClear.7 mph57%29.98 "Hg10 mi
2:30 am41 °FClear.6 mph61%29.98 "Hg10 mi
2:00 am39 °FClear.6 mph65%29.98 "Hg10 mi
1:30 am39 °FClear.6 mph70%29.98 "Hg10 mi
1:00 am41 °FClear.5 mph66%29.98 "Hg10 mi
12:30 am39 °FClear.5 mph70%29.98 "Hg10 mi
12:00 am39 °FClear.5 mph70%29.98 "Hg10 mi
11:30 pm
Sat, Dec 3
39 °FClear.5 mph70%29.98 "Hg10 mi
11:00 pm39 °FClear.6 mph70%29.98 "Hg10 mi
Weather by CustomWeather, © 2016

See weather overviewHow to use our weather pages